KLM95P EHAM-LKPR

Flight info

Callsign KLM95P
Flight time 1h 9m
Altitude 39000
Route EDUPO Z739 MISGO DCT BADGO DCT SWALM DCT GASKA DCT TONSU Z35 ODOMO DCT LOMKI
Aircraft B738/M-SDE2E3FGHIRWXY/LB1

Departure

Time 2026-05-06 20:24
Airport Amsterdam Airport Schiphol (EHAM)

Arrival

Time 2026-05-06 21:33
Airport Václav Havel Airport Prague (LKPR)
Time Latitude Longitude Altitude Speed Heading
2026-05-06 19:48 52.30379 4.76402 -2 ft 0 kts 238°
2026-05-06 20:10 52.30383 4.76412 -2 ft 2 kts 233°
2026-05-06 20:10 52.30393 4.76434 -2 ft 2 kts 229°
2026-05-06 20:10 52.30406 4.76452 -2 ft 2 kts 200°
2026-05-06 20:10 52.30421 4.76451 -2 ft 2 kts 148°
2026-05-06 20:11 52.30423 4.76449 -2 ft 0 kts 152°
2026-05-06 20:16 52.30421 4.76451 -2 ft 1 kts 151°
2026-05-06 20:17 52.30400 4.76472 -2 ft 6 kts 148°
2026-05-06 20:17 52.30351 4.76520 -2 ft 10 kts 154°
2026-05-06 20:17 52.30281 4.76484 -2 ft 13 kts 234°
2026-05-06 20:17 52.30224 4.76338 -2 ft 17 kts 238°
2026-05-06 20:18 52.30156 4.76161 -2 ft 20 kts 238°
2026-05-06 20:18 52.30076 4.75950 -2 ft 23 kts 237°
2026-05-06 20:18 52.29988 4.75718 -2 ft 23 kts 236°
2026-05-06 20:18 52.29911 4.75520 -2 ft 19 kts 238°
2026-05-06 20:19 52.29846 4.75351 -2 ft 17 kts 241°
2026-05-06 20:19 52.29854 4.75173 -2 ft 16 kts 306°
2026-05-06 20:19 52.29929 4.75033 -2 ft 17 kts 312°
2026-05-06 20:19 52.30010 4.74883 -2 ft 18 kts 311°
2026-05-06 20:20 52.30093 4.74730 2 ft 18 kts 311°
2026-05-06 20:20 52.30175 4.74579 9 ft 18 kts 312°
2026-05-06 20:20 52.30260 4.74421 9 ft 19 kts 311°
2026-05-06 20:20 52.30350 4.74250 -2 ft 18 kts 311°
2026-05-06 20:21 52.30418 4.74115 -2 ft 14 kts 297°
2026-05-06 20:21 52.30410 4.74003 -2 ft 2 kts 253°
2026-05-06 20:21 52.30408 4.73983 -2 ft 2 kts 261°
2026-05-06 20:21 52.30408 4.73943 -2 ft 5 kts 270°
2026-05-06 20:22 52.30408 4.73920 -2 ft 0 kts 272°
2026-05-06 20:22 52.30408 4.73912 -2 ft 3 kts 272°
2026-05-06 20:23 52.30411 4.73834 -3 ft 11 kts 279°
2026-05-06 20:23 52.30468 4.73765 -3 ft 13 kts 358°
2026-05-06 20:23 52.30681 4.73782 -3 ft 62 kts
2026-05-06 20:23 52.31361 4.73844 -3 ft 131 kts
2026-05-06 20:24 52.32395 4.73922 412 ft 154 kts
2026-05-06 20:24 52.33464 4.73978 1345 ft 153 kts
2026-05-06 20:24 52.34564 4.74363 1898 ft 176 kts 24°
2026-05-06 20:24 52.35735 4.75251 2402 ft 196 kts 26°
2026-05-06 20:25 52.36997 4.76188 2988 ft 206 kts 26°
2026-05-06 20:25 52.38206 4.77477 3571 ft 214 kts 43°
2026-05-06 20:25 52.39290 4.79256 4218 ft 228 kts 46°
2026-05-06 20:25 52.40391 4.81146 5102 ft 232 kts 46°
2026-05-06 20:26 52.41539 4.83146 5760 ft 246 kts 51°
2026-05-06 20:26 52.42290 4.85698 6570 ft 253 kts 75°
2026-05-06 20:26 52.42470 4.88608 7353 ft 262 kts 87°
2026-05-06 20:26 52.42469 4.91657 8087 ft 272 kts 89°
2026-05-06 20:27 52.42453 4.94813 8813 ft 281 kts 89°
2026-05-06 20:27 52.42105 4.98003 9582 ft 291 kts 114°
2026-05-06 20:27 52.40923 5.00685 10388 ft 296 kts 137°
2026-05-06 20:27 52.39221 5.02803 10694 ft 319 kts 145°
2026-05-06 20:28 52.37336 5.04890 10953 ft 341 kts 146°
2026-05-06 20:28 52.35359 5.07099 11623 ft 348 kts 145°
2026-05-06 20:28 52.33366 5.09414 12406 ft 353 kts 141°
2026-05-06 20:28 52.31600 5.12224 13175 ft 358 kts 131°
2026-05-06 20:29 52.29962 5.15348 13862 ft 364 kts 130°
2026-05-06 20:29 52.28321 5.18520 14619 ft 366 kts 131°
2026-05-06 20:29 52.26636 5.21671 15274 ft 371 kts 132°
2026-05-06 20:29 52.24911 5.24823 16106 ft 371 kts 133°
2026-05-06 20:30 52.23236 5.28092 16702 ft 379 kts 128°
2026-05-06 20:30 52.20191 5.35165 18145 ft 384 kts 125°
2026-05-06 20:30 52.18702 5.38719 18705 ft 389 kts 125°
2026-05-06 20:31 52.17141 5.42397 19329 ft 391 kts 126°
2026-05-06 20:31 52.15566 5.46059 19951 ft 394 kts 126°
2026-05-06 20:31 52.13981 5.49707 20530 ft 397 kts 126°
2026-05-06 20:31 52.12376 5.53381 21119 ft 400 kts 126°
2026-05-06 20:32 52.10775 5.57033 21675 ft 403 kts 127°
2026-05-06 20:32 52.09673 5.59545 22050 ft 406 kts 127°
2026-05-06 20:32 52.07490 5.64518 22768 ft 410 kts 127°
2026-05-06 20:32 52.05814 5.68304 23314 ft 413 kts 129°
2026-05-06 20:33 52.04590 5.70771 23652 ft 415 kts 132°
2026-05-06 20:33 52.02697 5.74231 24102 ft 416 kts 134°
2026-05-06 20:33 52.00750 5.77717 24576 ft 418 kts 133°
2026-05-06 20:33 51.98807 5.81264 25046 ft 420 kts 133°
2026-05-06 20:34 51.96875 5.84847 25493 ft 422 kts 132°
2026-05-06 20:34 51.94949 5.88448 25928 ft 424 kts 132°
2026-05-06 20:34 51.93012 5.92074 26379 ft 426 kts 132°
2026-05-06 20:34 51.91060 5.95721 26788 ft 428 kts 132°
2026-05-06 20:35 51.89096 5.99378 27213 ft 430 kts 132°
2026-05-06 20:35 51.87130 6.03032 27620 ft 432 kts 132°
2026-05-06 20:35 51.85151 6.06703 28029 ft 434 kts 133°
2026-05-06 20:35 51.83151 6.10387 28427 ft 436 kts 133°
2026-05-06 20:36 51.81142 6.14071 28808 ft 438 kts 133°
2026-05-06 20:36 51.79125 6.17764 29193 ft 439 kts 133°
2026-05-06 20:36 51.77123 6.21431 29561 ft 441 kts 133°
2026-05-06 20:36 51.75092 6.25143 29897 ft 443 kts 133°
2026-05-06 20:37 51.73045 6.28878 30214 ft 444 kts 133°
2026-05-06 20:37 51.70991 6.32619 30464 ft 447 kts 133°
2026-05-06 20:37 51.68923 6.36378 30703 ft 449 kts 133°
2026-05-06 20:37 51.66838 6.40165 30945 ft 451 kts 133°
2026-05-06 20:38 51.64754 6.43944 31281 ft 451 kts 133°
2026-05-06 20:38 51.62670 6.47719 31649 ft 450 kts 133°
2026-05-06 20:38 51.60589 6.51485 31980 ft 450 kts 133°
2026-05-06 20:38 51.59211 6.53977 32177 ft 450 kts 133°
2026-05-06 20:39 51.58496 6.55270 32280 ft 451 kts 133°
2026-05-06 20:39 51.56429 6.59000 32589 ft 451 kts 133°
2026-05-06 20:39 51.54297 6.62840 32940 ft 450 kts 133°
2026-05-06 20:39 51.52240 6.66538 33281 ft 449 kts 133°
2026-05-06 20:40 51.50134 6.70319 33595 ft 449 kts 133°
2026-05-06 20:40 51.48046 6.74059 33908 ft 449 kts 133°
2026-05-06 20:40 51.45993 6.77734 34191 ft 448 kts 133°
2026-05-06 20:40 51.43912 6.81456 34433 ft 448 kts 133°
2026-05-06 20:41 51.41880 6.85251 34649 ft 450 kts 128°
2026-05-06 20:41 51.40180 6.89468 34889 ft 452 kts 120°
2026-05-06 20:41 51.38897 6.94061 35126 ft 454 kts 111°
2026-05-06 20:41 51.37840 6.98840 35346 ft 455 kts 110°
2026-05-06 20:42 51.36823 7.03634 35553 ft 455 kts 110°
2026-05-06 20:42 51.35810 7.08420 35791 ft 455 kts 110°
2026-05-06 20:42 51.34780 7.13222 36005 ft 455 kts 110°
2026-05-06 20:42 51.33736 7.18011 36222 ft 456 kts 111°
2026-05-06 20:43 51.32682 7.22782 36419 ft 456 kts 111°
2026-05-06 20:43 51.31617 7.27560 36639 ft 456 kts 111°
2026-05-06 20:43 51.30548 7.32328 36820 ft 456 kts 111°
2026-05-06 20:43 51.29477 7.37083 36982 ft 457 kts 111°
2026-05-06 20:44 51.28397 7.41870 37153 ft 457 kts 111°
2026-05-06 20:44 51.27319 7.46643 37338 ft 457 kts 111°
2026-05-06 20:44 51.26239 7.51412 37502 ft 457 kts 111°
2026-05-06 20:44 51.25156 7.56187 37668 ft 457 kts 111°
2026-05-06 20:45 51.24072 7.60955 37822 ft 457 kts 112°
2026-05-06 20:45 51.22984 7.65735 37980 ft 458 kts 112°
2026-05-06 20:45 51.21896 7.70500 38136 ft 458 kts 112°
2026-05-06 20:45 51.20818 7.75208 38280 ft 458 kts 112°
2026-05-06 20:46 51.19724 7.79982 38449 ft 457 kts 112°
2026-05-06 20:46 51.18630 7.84741 38557 ft 458 kts 112°
2026-05-06 20:46 51.17530 7.89512 38666 ft 459 kts 112°
2026-05-06 20:46 51.16429 7.94279 38773 ft 458 kts 112°
2026-05-06 20:47 51.15327 7.99042 38848 ft 458 kts 112°
2026-05-06 20:47 51.13112 8.08577 38859 ft 462 kts 112°
2026-05-06 20:48 51.10868 8.18205 38852 ft 461 kts 112°
2026-05-06 20:48 51.08285 8.27380 38868 ft 454 kts 123°
2026-05-06 20:49 51.04972 8.35925 38863 ft 455 kts 124°
2026-05-06 20:49 51.01590 8.44484 38860 ft 458 kts 124°
2026-05-06 20:50 50.98226 8.53096 38847 ft 460 kts 124°
2026-05-06 20:50 50.94878 8.61712 38846 ft 461 kts 124°
2026-05-06 20:51 50.91507 8.70372 38845 ft 462 kts 124°
2026-05-06 20:51 50.88129 8.79014 38845 ft 461 kts 124°
2026-05-06 20:52 50.84750 8.87628 38837 ft 460 kts 124°
2026-05-06 20:52 50.81368 8.96218 38834 ft 458 kts 124°
2026-05-06 20:53 50.77994 9.04762 38834 ft 456 kts 124°
2026-05-06 20:53 50.74655 9.13187 38825 ft 454 kts 124°
2026-05-06 20:54 50.71324 9.21646 38824 ft 453 kts 122°
2026-05-06 20:54 50.68334 9.30396 38827 ft 453 kts 120°
2026-05-06 20:55 50.65433 9.39255 38827 ft 455 kts 120°
2026-05-06 20:55 50.62499 9.48095 38820 ft 456 kts 120°
2026-05-06 20:56 50.59529 9.56919 38824 ft 457 kts 121°
2026-05-06 20:56 50.56534 9.65757 38818 ft 457 kts 121°
2026-05-06 20:57 50.53553 9.74522 38815 ft 457 kts 121°
2026-05-06 20:57 50.50551 9.83325 38813 ft 456 kts 121°
2026-05-06 20:58 50.47552 9.92086 38812 ft 455 kts 121°
2026-05-06 20:58 50.44552 10.00820 38809 ft 454 kts 121°
2026-05-06 20:59 50.41557 10.09510 38803 ft 452 kts 121°
2026-05-06 20:59 50.38560 10.18173 38804 ft 452 kts 121°
2026-05-06 21:00 50.35574 10.26782 38806 ft 453 kts 121°
2026-05-06 21:00 50.32371 10.35270 38812 ft 452 kts 125°
2026-05-06 21:01 50.29006 10.43583 38813 ft 452 kts 125°
2026-05-06 21:01 50.25642 10.51896 38819 ft 452 kts 125°
2026-05-06 21:02 50.22290 10.60235 38817 ft 453 kts 125°
2026-05-06 21:02 50.18934 10.68588 38805 ft 454 kts 125°
2026-05-06 21:03 50.15574 10.76928 38817 ft 455 kts 125°
2026-05-06 21:03 50.13879 10.81123 38592 ft 460 kts 125°
2026-05-06 21:03 50.12163 10.85359 38028 ft 462 kts 125°
2026-05-06 21:03 50.10452 10.89582 37457 ft 459 kts 126°
2026-05-06 21:04 50.08772 10.93722 36884 ft 457 kts 126°
2026-05-06 21:04 50.07076 10.97895 36362 ft 454 kts 126°
2026-05-06 21:04 50.05392 11.02029 35899 ft 450 kts 127°
2026-05-06 21:04 50.03702 11.06171 35446 ft 445 kts 127°
2026-05-06 21:05 50.02074 11.10156 35000 ft 440 kts 127°
2026-05-06 21:05 50.00439 11.14153 34574 ft 436 kts 127°
2026-05-06 21:05 49.98851 11.18172 34143 ft 438 kts 123°
2026-05-06 21:05 49.97646 11.22546 33716 ft 444 kts 114°
2026-05-06 21:06 49.96858 11.27215 33220 ft 449 kts 105°
2026-05-06 21:06 49.96542 11.32067 32739 ft 454 kts 98°
2026-05-06 21:06 49.96419 11.36949 32265 ft 454 kts 97°
2026-05-06 21:06 49.96321 11.41851 31786 ft 454 kts 97°
2026-05-06 21:07 49.96204 11.46791 31330 ft 458 kts 98°
2026-05-06 21:07 49.96061 11.51745 30869 ft 459 kts 98°
2026-05-06 21:07 49.95903 11.56667 30418 ft 455 kts 98°
2026-05-06 21:07 49.95740 11.61548 29974 ft 452 kts 98°
2026-05-06 21:08 49.95572 11.66419 29456 ft 450 kts 98°
2026-05-06 21:08 49.95403 11.71289 28949 ft 452 kts 98°
2026-05-06 21:08 49.95229 11.76194 28461 ft 458 kts 98°
2026-05-06 21:08 49.95051 11.81169 27967 ft 463 kts 98°
2026-05-06 21:09 49.94873 11.86165 27486 ft 463 kts 97°
2026-05-06 21:09 49.94696 11.91137 26998 ft 459 kts 97°
2026-05-06 21:09 49.94526 11.96085 26534 ft 460 kts 96°
2026-05-06 21:09 49.94411 12.01081 26079 ft 465 kts 95°
2026-05-06 21:10 49.94323 12.06112 25620 ft 467 kts 95°
2026-05-06 21:10 49.94241 12.11046 25153 ft 457 kts 95°
2026-05-06 21:10 49.94151 12.15929 24692 ft 449 kts 95°
2026-05-06 21:10 49.94050 12.20742 24225 ft 442 kts 95°
2026-05-06 21:11 49.93943 12.25473 23775 ft 436 kts 94°
2026-05-06 21:11 49.93836 12.30139 23323 ft 430 kts 94°
2026-05-06 21:11 49.93729 12.34752 22804 ft 426 kts 94°
2026-05-06 21:11 49.93612 12.39318 22293 ft 421 kts 94°
2026-05-06 21:12 49.93488 12.43849 21786 ft 418 kts 94°
2026-05-06 21:12 49.93361 12.48339 21298 ft 415 kts 94°
2026-05-06 21:12 49.93231 12.52812 20834 ft 413 kts 94°
2026-05-06 21:12 49.93101 12.57242 20381 ft 410 kts 94°
2026-05-06 21:13 49.92969 12.61658 19932 ft 410 kts 94°
2026-05-06 21:13 49.92836 12.66075 19485 ft 408 kts 94°
2026-05-06 21:13 49.92703 12.70477 19053 ft 405 kts 94°
2026-05-06 21:13 49.92571 12.74800 18627 ft 402 kts 94°
2026-05-06 21:14 49.92438 12.79080 18206 ft 399 kts 94°
2026-05-06 21:14 49.92304 12.83358 17754 ft 395 kts 94°
2026-05-06 21:14 49.92170 12.87586 17286 ft 389 kts 94°
2026-05-06 21:14 49.92036 12.91758 16811 ft 384 kts 94°
2026-05-06 21:15 49.91901 12.95887 16340 ft 380 kts 94°
2026-05-06 21:15 49.91767 12.99958 15878 ft 376 kts 94°
2026-05-06 21:15 49.91633 13.03981 15421 ft 368 kts 95°
2026-05-06 21:15 49.91501 13.07905 14973 ft 361 kts 95°
2026-05-06 21:16 49.91369 13.11760 14524 ft 353 kts 95°
2026-05-06 21:16 49.91241 13.15483 14093 ft 345 kts 95°
2026-05-06 21:16 49.91115 13.19152 13659 ft 338 kts 95°
2026-05-06 21:16 49.90991 13.22751 13173 ft 331 kts 95°
2026-05-06 21:17 49.90867 13.26273 12704 ft 323 kts 95°
2026-05-06 21:17 49.90745 13.29721 12259 ft 316 kts 95°
2026-05-06 21:17 49.90625 13.33093 11807 ft 310 kts 95°
2026-05-06 21:17 49.90506 13.36399 11385 ft 304 kts 95°
2026-05-06 21:18 49.90387 13.39652 10973 ft 299 kts 95°
2026-05-06 21:18 49.90269 13.42846 10575 ft 295 kts 95°
2026-05-06 21:18 49.90153 13.46011 10201 ft 294 kts 95°
2026-05-06 21:18 49.90075 13.48102 9957 ft 293 kts 95°
2026-05-06 21:19 49.89958 13.51247 9557 ft 290 kts 95°
2026-05-06 21:19 49.89891 13.54352 9162 ft 286 kts 86°
2026-05-06 21:19 49.90444 13.57282 8793 ft 283 kts 62°
2026-05-06 21:19 49.91460 13.59864 8502 ft 279 kts 57°
2026-05-06 21:20 49.92510 13.62355 8257 ft 273 kts 57°
2026-05-06 21:20 49.93543 13.64804 7989 ft 268 kts 57°
2026-05-06 21:20 49.94548 13.67207 7764 ft 263 kts 57°
2026-05-06 21:20 49.95528 13.69573 7509 ft 258 kts 57°
2026-05-06 21:21 49.96403 13.71696 7290 ft 254 kts 57°
2026-05-06 21:21 49.97345 13.73990 7055 ft 250 kts 58°
2026-05-06 21:21 49.98273 13.76257 6817 ft 247 kts 57°
2026-05-06 21:21 49.99187 13.78491 6574 ft 243 kts 57°
2026-05-06 21:22 50.00076 13.80668 6344 ft 240 kts 57°
2026-05-06 21:22 50.00963 13.82843 6112 ft 238 kts 57°
2026-05-06 21:22 50.01854 13.85027 5881 ft 239 kts 57°
2026-05-06 21:22 50.02740 13.87204 5638 ft 237 kts 57°
2026-05-06 21:23 50.03619 13.89365 5403 ft 235 kts 57°
2026-05-06 21:23 50.04487 13.91498 5150 ft 232 kts 57°
2026-05-06 21:23 50.05338 13.93592 4945 ft 225 kts 57°
2026-05-06 21:23 50.06159 13.95614 4757 ft 218 kts 57°
2026-05-06 21:24 50.06964 13.97598 4573 ft 215 kts 57°
2026-05-06 21:24 50.07766 13.99573 4375 ft 215 kts 56°
2026-05-06 21:24 50.08684 14.01336 4162 ft 213 kts 32°
2026-05-06 21:24 50.10081 14.01982 4051 ft 213 kts 356°
2026-05-06 21:25 50.11460 14.01241 4014 ft 214 kts 322°
2026-05-06 21:25 50.12487 13.99564 4003 ft 215 kts 308°
2026-05-06 21:25 50.13381 13.97695 4010 ft 215 kts 306°
2026-05-06 21:25 50.14262 13.95814 3997 ft 215 kts 306°
2026-05-06 21:26 50.15132 13.93949 3985 ft 211 kts 306°
2026-05-06 21:26 50.15996 13.92122 3980 ft 209 kts 307°
2026-05-06 21:26 50.16929 13.90390 3971 ft 209 kts 324°
2026-05-06 21:26 50.18279 13.89685 3994 ft 208 kts
2026-05-06 21:27 50.19664 13.90344 4006 ft 214 kts 29°
2026-05-06 21:27 50.20901 13.91675 4003 ft 218 kts 35°
2026-05-06 21:27 50.22108 13.93093 3992 ft 216 kts 36°
2026-05-06 21:27 50.23130 13.94751 3973 ft 212 kts 64°
2026-05-06 21:28 50.23246 13.96937 3979 ft 208 kts 107°
2026-05-06 21:28 50.22657 13.98980 4000 ft 206 kts 116°
2026-05-06 21:28 50.21969 14.00944 3992 ft 206 kts 118°
2026-05-06 21:28 50.21235 14.02822 3976 ft 198 kts 123°
2026-05-06 21:29 50.20450 14.04545 3980 ft 191 kts 125°
2026-05-06 21:29 50.19669 14.06172 3982 ft 185 kts 126°
2026-05-06 21:29 50.18895 14.07772 3855 ft 185 kts 126°
2026-05-06 21:29 50.18119 14.09374 3604 ft 183 kts 126°
2026-05-06 21:30 50.17363 14.10936 3362 ft 176 kts 125°
2026-05-06 21:30 50.16636 14.12439 3157 ft 172 kts 125°
2026-05-06 21:30 50.15924 14.13913 2921 ft 167 kts 124°
2026-05-06 21:30 50.15240 14.15329 2717 ft 162 kts 124°
2026-05-06 21:31 50.14556 14.16733 2547 ft 163 kts 125°
2026-05-06 21:31 50.13881 14.18095 2311 ft 154 kts 125°
2026-05-06 21:31 50.13260 14.19391 2079 ft 147 kts 124°
2026-05-06 21:31 50.12662 14.20681 1868 ft 149 kts 125°
2026-05-06 21:32 50.12058 14.21969 1639 ft 144 kts 127°
2026-05-06 21:32 50.10882 14.24377 1241 ft 139 kts 128°
2026-05-06 21:32 50.10326 14.25524 1179 ft 119 kts 128°
2026-05-06 21:33 50.09911 14.26381 1198 ft 78 kts 127°
2026-05-06 21:33 50.09672 14.26874 1207 ft 39 kts 128°
2026-05-06 21:33 50.09529 14.27168 1206 ft 31 kts 127°
2026-05-06 21:33 50.09429 14.27386 1209 ft 18 kts 109°
2026-05-06 21:34 50.09482 14.27501 1210 ft 11 kts 37°
2026-05-06 21:34 50.09535 14.27562 1212 ft 8 kts 36°
2026-05-06 21:34 50.09583 14.27617 1211 ft 9 kts 36°
2026-05-06 21:34 50.09646 14.27627 1208 ft 11 kts 326°
2026-05-06 21:35 50.09712 14.27530 1205 ft 15 kts 315°
2026-05-06 21:35 50.09788 14.27413 1204 ft 16 kts 315°
2026-05-06 21:35 50.09865 14.27287 1201 ft 16 kts 309°
2026-05-06 21:35 50.09936 14.27143 1199 ft 18 kts 307°
2026-05-06 21:36 50.10010 14.26989 1195 ft 18 kts 306°
2026-05-06 21:36 50.10090 14.26823 1185 ft 22 kts 307°
2026-05-06 21:36 50.10178 14.26642 1176 ft 17 kts 307°
2026-05-06 21:36 50.10252 14.26533 1175 ft 12 kts
2026-05-06 21:37 50.10329 14.26602 1172 ft 13 kts 34°
2026-05-06 21:37 50.10391 14.26572 1171 ft 10 kts 308°
2026-05-06 21:37 50.10418 14.26518 1171 ft 4 kts 327°
2026-05-06 21:37 50.10430 14.26514 1173 ft 2 kts 355°
2026-05-06 21:38 50.10450 14.26523 1173 ft 2 kts 18°
2026-05-06 21:38 50.10458 14.26529 1173 ft 1 kts 32°
2026-05-06 21:38 50.10460 14.26531 1173 ft 0 kts 34°